STARLINK-11179 [DTC] (60190 NORAD) Tracking and Keplerian Element Data

This shows tracking and keplerian element data for the satellite.

Feedback or suggestion? Click here.




ElementValue
Catalog60190
NameSTARLINK-11179 [DTC]
Epoch Orbit1598
Epoch Day286.85277882
Epoch Year2024
RAAN169.616
Inclination53.1572
Eccentricity7.77E-05
Argument of Perigee63.0989
Mean Anonmoly297.0108
Mean Motion15.69771431
Decay Rate0.00046279
L11 60190U 24124H 24286.85277882 .00046279 00000+0 38374-3 0 9993
L22 60190 53.1572 169.6160 0000777 63.0989 297.0108 15.69771431 15980



Live tracking and technical data element details for STARLINK-11179 [DTC] (NORAD 60190). STARLINK-11179 [DTC] can be tracked NOW for your location showing map with azimuth and elevation plus other details from your city location.







IsCatalogInMostPopularTable: catalog: 60190, numindb: 12
Update: records affected: 1



GetName: 60190 STARLINK-11179 [DTC]

Hit Count: updated at: Thu, 23 Jan 2025 14:22:27 GMT